Погода в Баргузине

Погода в Баргузине : погода сейчас, прогноз погоды и архив. Всё, что Вы хотите узнать о погоде в Баргузине!

Поиск расширенной информации на нашем сайте:

Другие новости

Новости СМИ2

Главная страница сайта

Новости сайта

03.07.2017

Напоминаем, что на нашем специализированном сайте Метеоцентр.Азия вы можете получить высокодетализированные автоматические прогнозы погоды по пунктам России, СНГ и мира в авиационном формате (включающие направление и скорость ветра, видимость, явления погоды, количество и форму облачности, нижнюю и верхнюю границу облачности).


Погода в Баргузине - сегодня

Время (UTC), дата Ветер
(°,м/с) 
Видим.   Явления Облачность Т
(°С)
Тd
(°С)
f(%) Тe
(°С)
Pmin
(гПа)
dP
(гПа)
Po
(мм)
O2
(г/м3)
Тmin Tmax R s Состояние
почвы
06 17.05.18 280 (З) 3{10}  20000 м    3/0 верхняя 
[Ci fib]
+19.1 -7.6 16 +20  1008.1  -0.5  714  270           
09 17.05.18 240 (ЮЗ) 20000 м    10/0 верхняя 
[Ci fib]
+20 -5.9 17 +20  1006.5  -1.3  713  268           
15 17.05.18 330 (СЗ) н/о    4/0 верхняя 
[Ci fib]
+8.6 -2.8 45 +10  1008.6  0.1  713  279           
18 17.05.18 тихо ()   н/о    6/0 средняя, верхняя 
[Ac trans|Ci fib]
+5.2 -1 64 +5  1009.1  -0.2  713  282           
21 17.05.18 тихо ()   20000 м    4/4 1000 м кучево-дожд. 
[Cb cap]
+4.7 -1.6 64 +5  1008.2  -0.9  712  282           
00 18.05.18 350 (С) 20000 м    8/4 1000 м кучево-дожд., средняя 
[Cb cap|Ac trans]
+9.4 -1.7 46 +10  1005.6  -1.5  711  277  +3.7         
03 18.05.18 110 (В) 20000 м    10/3 1000 м кучево-дожд., средняя, верхняя 
[Cb cap|Ac trans|Ci fib]
+16.9 -1.9 28 +18  1000.8  -3  709  269           
06 18.05.18 240 (ЮЗ) 20000 м    10/3 1000 м кучево-дожд., средняя, верхняя 
[Cb cap|Ac trans|Ci fib]
+24.9 -4.2 14 +25  997.3  -1.9  707  262           
09 18.05.18 280 (З) 4{14}  20000 м    3/0 средняя 
[Ac trans]
+18.1 -1.9 26 +18  1001.3  2.5  709  268           
12 18.05.18 270 (З) 4{10}  20000 м    3/0 средняя 
[Ac trans]
+15.9 -2.2 29 +16  1002.5  0.7  710  270    +24.9       
15 18.05.18 240 (ЮЗ) 1{10}  н/о    8/0 средняя, верхняя 
[Ac trans|Ci fib]
+13.5 -2.3 33 +15  1003.9  0.9  711  273           
18 18.05.18 230 (ЮЗ) н/о    10/0 средняя, верхняя 
[Ac As|Ci fib]
+11.2 -1.6 41 +12  1004.8  0.4  711  275           
21 18.05.18 260 (З) 20000 м    10/0 средняя, верхняя 
[Ac As|Ci fib]
+8.7 -1.4 49 +10  1006.1  0.8  711  278           
00 19.05.18 230 (ЮЗ) 20000 м    10/0 средняя, верхняя 
[Ac trans|Ci fib]
+15.4 -4.3 25 +16  1005.8  712  272  +8.7        сухая 
03 19.05.18 230 (ЮЗ) 2{13}  20000 м    10/0 средняя, верхняя 
[Ac trans|Ci fib]
+14.6 -4.3 27 +15  1007.8  1.7  713  273           
06 19.05.18 250 (З) 2{10}  20000 м    3/3 1000 м 
[Cu hum]
+16.3 -3.7 25 +17  1009.1  1.5  715  272           
09 19.05.18 220 (ЮЗ) 2{10}  20000 м    ясно 
+16.3 -4.4 24 +17  1008.6  -0.5  714  272           
12 19.05.18 тихо ()   20000 м    ясно 
+11.4 -5.5 30 +11  1010.3  0.7  715  277    +16.8       
15 19.05.18 230 (ЮЗ) н/о    1/0 верхняя 
[Ci fib]
+5.3 -2.2 58 +6  1012.8  1.2  716  283           
18 19.05.18 тихо ()   н/о    4/0 средняя, верхняя 
[Ac trans|Ci fib]
+0.6 -2.8 78 +1  1013.9  0.2  716  288           
21 19.05.18 тихо ()   20000 м    6/0 верхняя 
[Ci fib]
-1.7 -4.4 82 -2  1014.5  716  291           
00 20.05.18 030 (СВ) 10 км  дым  10/3 1000 м кучево-дожд., средняя, верхняя 
[Cb cap|Ac trans|Ci fib]
+7.8 -5.1 40 +9  1011.5  -0.9  715  281  -1.8        сухая 
03 20.05.18 280 (З) 10 км  дым  10/8 600 м кучево-дожд., средняя 
[Cb cap|Ac trans]
+12.5 -5.3 28 +14  1009.5  -1  714  276           
06 20.05.18 080 (В) 10 км  дым  10/6 1000 м средняя, верхняя 
[Sc|Ac trans|Ci fib]
+17.2 -6 20 +18  1005.7  -2.7  712  271           
09 20.05.18 260 (З) 2{11}  20000 м    10/8 1000 м средняя 
[Sc|Ac trans]
+10.9 -3.4 36 +11  1009.2  2.1  714  277           
Время (UTC), дата Ветер
(°,м/с) 
Видим.   Явления Облачность Т
(°С)
Тd
(°С)
f(%) Тe
(°С)
Pmin
(гПа)
dP
(гПа)
Po
(мм)
O2
(г/м3)
Тmin Tmax R s Состояние
почвы

Для получения пояснительной информации подведите курсор к названию столбца.

ПОГОДА в Баргузине - архив

Всё, что Вы хотите узнать о погоде в Баргузине - удобно и подробно!

Выберите нужную дату (начиная с 1 января 2015* года) и нажмите кнопку "Найти".
Будут отображены архивные сводки погоды по пункту Баргузин, начиная с указанной даты.


Отображать данные в формате CSV (для использования в таблицах Excel)


Внимание! Наш архив погоды предназначен исключительно для личного некоммерческого использования в познавательных целях. Если Вам необходимы официальные справки о состоянии погоды (для производственных, юридических, коммерческих и т.п. целей), обращайтесь в органы Росгидромета.

*Примечание: данная дата относится к архиву по метеостанциям СССР (Россия, СНГ, Балтия).
Архив по метеостанциям Зарубежной Европы и Азии (кроме Китая) хранится 10 дней, по другим регионам земного шара (Китай, Африка, Америка, Австралия, Океания) - 1 день.

Баргузин - район местоположения метеостанции


Название, широта, долгота, высота метеостанции:
Баргузин 53.6°ш. 109.6°д. 489 м над ур. моря [Российская Федерация]

Дополнительная информация

В oтличие oт бoльшинства пoгoдных сайтoв мы публикуем пoдрoбную метеoинфoрмацию в детальнoм прoфессиoнальнoм фoрмате.

Характеристики температуры и влажнoсти вoздуха измеряются на высoте 2 м в тени вдали oт зданий и деревьев.
Скoрoсть ветра измеряется на высoте 10 м (на урoвне рoста челoвека скoрoсть ветра ниже в 1.5-2 раза). Если метеoстанция нахoдится в гoрoде или в лесу, тo скoрoсть ветра занижена на 2-4 м/с пo сравнению с oткрытым местoм. Скoрoсть ветра над акватoриями крупных рек и oзёр, а также на вершинах хoлмoв на 2-5 м/с выше, чем в oбычных услoвиях.
Атмoсфернoе давление в разных тoчках местнoсти мoжет значительнo oтличаться oт давления на метеoстанции, в зависимoсти oт услoвий рельефа (при пoдъёме на 10 м давление пoнижается примернo на 1 мм рт.ст.).